Location: Evergreen Manor
(41.4083°N, 81.4939°W)
Time: 05:21:47
(UTC+00:00)

SL-16 R/B - Pass Details

Date: 11 December 2019
Orbit: 840 x 849 km, 71.0° (Epoch: 22 January)

Event Time Altitude Azimuth Distance (km) Brightness Sun altitude
Rises 00:06:55 0° 216° (SW) 3,392 6.0 -23.7°
Reaches altitude 10° 00:09:25 10° 221° (SW) 2,462 5.3 -24.1°
Maximum altitude 00:14:56 53° 298° (WNW) 1,036 2.8 -25.2°
Enters shadow 00:18:09 25° 5° (N) 1,668 3.6 -25.8°
